Regional Weather Roundup
Issued by NWS

Home | Current Version | Previous Version | Graphics & Text | Print | Product List | Glossary On
Versions: 1 2 3 4 5 6 7 8 9 10 11 12 13 14 15 16 17 18 19 20 21 22 23 24 25 26 27 28 29 30 31 32 33 34 35 36 37 38 39 40 41 42 43 44 45 46 47 48 49 50
000
ASUS43 KTOP 021259
RWRKS

WEATHER ROUNDUP FOR KANSAS
NATIONAL WEATHER SERVICE GOODLAND KS
800 AM CDT THU JUL 02 2015

NOTE:  "FAIR" INDICATES FEW OR NO CLOUDS BELOW 12,000 FEET WITH NO
SIGNIFICANT WEATHER AND/OR OBSTRUCTIONS TO VISIBILITY.

KSZ001>006-013>018-027>032-041>047-021400-
NORTHWEST KANSAS

CITY           SKY/WX    TMP DP  RH WIND       PRES   REMARKS
GOODLAND       MOSUNNY   63  56  78 N14       30.10S
HAYS           CLOUDY    73  64  73 E7        29.96R
HILL CITY      TSTM      66  63  90 N21G31    30.02R FOG
RUSSELL        CLOUDY    73  71  93 E8        29.93R FOG
$$

KSZ061>065-074>080-084>089-021400-
SOUTHWEST KANSAS

CITY           SKY/WX    TMP DP  RH WIND       PRES   REMARKS
DODGE CITY     PTSUNNY   73  61  65 N7        29.96R
ELKHART          N/A     72  61  68 N6          N/A
GARDEN CITY    LGT RAIN  69  64  84 N12       29.99S
GREAT BEND     CLOUDY    73  68  83 E7        29.95R
LIBERAL        CLOUDY    77  59  53 N17       29.98F
$$

KSZ066>073-081>083-090>101-021400-
SOUTHEAST KANSAS

CITY           SKY/WX    TMP DP  RH WIND       PRES   REMARKS
CHANUTE        PTSUNNY   74  70  87 N7        29.84R
COFFEYVILLE    PTSUNNY   77  72  84 NW7       29.81S
HUTCHINSON     MOSUNNY   75  71  87 N3        29.91R FOG
MEDICINE LODGE   N/A     78  69  73 NE6       29.88R
NEWTON         PTSUNNY   73  66  78 N8        29.93R
PARSONS        PTSUNNY   76  71  85 N6        29.83R
WICHITA INTL   CLOUDY    77  72  84 N9        29.88R
WICHITA JABRA  CLOUDY    74  71  91 N8        29.88R
WINFIELD       PTSUNNY   77  72  84 N7        29.86R
$$

KSZ007>012-019>026-033>040-048>060-102>105-021400-
NORTHEAST KANSAS

CITY           SKY/WX    TMP DP  RH WIND       PRES   REMARKS
CONCORDIA      CLOUDY    73  69  87 E6        29.92F
EMPORIA        CLOUDY    73  69  87 NE14      29.87S
LAWRENCE       CLOUDY    73  69  87 N7        29.89R FOG
MANHATTAN      CLOUDY    75  70  84 NE9       29.91R
OLATHE IND     CLOUDY    72  68  87 E8        29.89R
OLATHE EXE     CLOUDY    70  68  93 NE10      29.88R
SALINA         SUNNY     77  71  82 NE8       29.91S
TOPEKA BILLARD CLOUDY    74  70  87 N7        29.89R
TOPEKA FORBES  CLOUDY    75  69  81 NE9       29.89R
$$


USA.gov is the U.S. government's official web portal to all federal, state and local government web resources and services.